Regional Weather Roundup
Issued by NWS

Home | Current Version | Previous Version | Text Only | Print | Product List | Glossary Off
Versions: 1 2 3 4 5 6 7 8 9 10 11 12 13 14 15 16 17 18 19 20 21 22 23 24 25 26 27 28 29 30 31 32 33 34 35 36 37 38 39 40 41 42 43 44 45 46 47 48 49 50

000
ASUS43 KOAX 230510
RWRNE

WEATHER ROUNDUP FOR NEBRASKA
NATIONAL WEATHER SERVICE OMAHA NE
1200 AM CDT WED JUL 23 2014

NOTES: SATELLITE DATA IS BEING USED TO AUGMENT CLOUD COVER ABOVE
       12000 FEET.
       "FAIR" INDICATES FEW OR NO CLOUDS BELOW 12,000 FEET WITH NO
       SIGNIFICANT WEATHER AND/OR OBSTRUCTIONS TO VISIBILITY.

  * THESE STATIONS DO NOT REPORT WEATHER SUCH AS RAIN...SNOW OR FOG.

NEZ001>004-019>022-054>056-230600-
NEBRASKA PANHANDLE

CITY           SKY/WX    TMP DP  RH WIND       PRES   REMARKS
SCOTTSBLUFF    CLEAR     75  61  61 E15       30.25R
ALLIANCE       PTCLDY    77  59  53 NE33G40   30.33R
CHADRON        MOCLDY    70  64  81 SE13      30.25F
KIMBALL        CLEAR     73  59  61 SE12      30.30R
SIDNEY         CLEAR     77  59  53 SE16G23   30.31R
$$

NEZ057>060-069>072-079>082-230600-
SOUTHWEST NEBRASKA

CITY           SKY/WX    TMP DP  RH WIND       PRES   REMARKS
NORTH PLATTE   PTCLDY    71  64  78 E8        30.27R
IMPERIAL       CLEAR     74  62  66 E8        30.27R
LEXINGTON      PTCLDY    72  67  84 E9        30.24R
MCCOOK         PTCLDY    76  67  73 E14       30.22R
OGALLALA       PTCLDY    72  64  75 E9        30.27R
$$

NEZ005>010-023>029-035>040-094-230600-
NORTH CENTRAL NEBRASKA

CITY           SKY/WX    TMP DP  RH WIND       PRES   REMARKS
VALENTINE      CLOUDY    73  62  68 E5        30.31R
AINSWORTH      MOCLDY    67  64  89 NE5       30.31R FOG
BROKEN BOW     CLEAR     69  65  86 NE6       30.26R
O`NEILL        MOCLDY    67  61  79 N5        30.27R
ORD            CLEAR     67  65  93 N5        30.24R
THEDFORD       MOCLDY    70  62  77 E6        30.31R
$$

NEZ041-046>049-061>064-073>077-083>087-230600-
SOUTH CENTRAL NEBRASKA

CITY           SKY/WX    TMP DP  RH WIND       PRES   REMARKS
GRAND ISLAND   CLEAR     70  67  90 NE5       30.22R
AURORA         CLEAR     71  70  95 NE6       30.21R
HASTINGS       CLEAR     72  66  81 NE7       30.22R
HEBRON         CLEAR     76  69  78 NE5       30.17R
HOLDREGE       CLEAR     72  68  87 NE12      30.22R
KEARNEY *      CLEAR     72  66  83 NE7       30.23R
YORK           CLEAR     72  70  94 N8        30.20R
$$

NEZ011>018-030>034-042>045-230600-
NORTHEAST NEBRASKA

CITY           SKY/WX    TMP DP  RH WIND       PRES   REMARKS
NORFOLK        CLEAR     71  62  73 N5        30.22R
ALBION         CLEAR     70  64  83 N5        30.23R
BLAIR          CLEAR     73  59  62 N9        30.17R
COLUMBUS *     CLEAR     70  63  78 NE8       30.21R
FREMONT        CLEAR     74  65  74 CALM      30.19R
TEKAMAH        CLEAR     68  64  87 N6        30.18R
WAYNE          CLEAR     65  62  91 NE3       30.23R
$$

NEZ050>053-065>068-078-088>093-230600-
SOUTHEAST NEBRASKA

CITY           SKY/WX    TMP DP  RH WIND       PRES   REMARKS
LINCOLN        CLEAR     74  67  78 N10       30.17R
OMAHA EPPLEY   PTCLDY    73  66  78 N8        30.16R
BEATRICE       CLEAR     72  68  88 NE6       30.16R
FALLS CITY     CLEAR     77  71  82 NE9       30.11R
NEBRASKA CITY  CLEAR     73  69  87 NE10      30.15R
PLATTSMOUTH    CLEAR     73  67  82 N5        30.16R
$$

NEZ044-045-051>053-067-230600-
OMAHA AREA

CITY           SKY/WX    TMP DP  RH WIND       PRES   REMARKS
OMAHA EPPLEY   PTCLDY    73  66  78 N8        30.16R
BLAIR          CLEAR     73  59  62 N9        30.17R
FREMONT        CLEAR     74  65  74 CALM      30.19R
MILLARD        CLEAR     77  66  69 NE3       30.17R
OFFUTT AFB     CLEAR     75  69  81 N3        30.16R
PLATTSMOUTH    CLEAR     73  67  82 N5        30.16R
WAHOO          FAIR      71  65  83 N5        30.17R
$$



USA.gov is the U.S. government's official web portal to all federal, state and local government web resources and services.